Home > Weather > Tiruvarur > Past weeks

Flag for India Past Weather in Tiruvarur, Tamil Nadu, India — Yesterday and Last 2 Weeks

Now
79 °F

Thunderstorms. Partly cloudy.


Feels Like: 82 °F
Forecast: 79 / 94 °F
Wind: 6 mph from Northeast

Location: Tiruchchirapalli

Current Time: Jul 24, 2016 at 10:13:50 PM

Latest Report: Jul 24, 2016 at 9:30 PM


Visibility: 2 mi

Pressure: 29.74 "Hg

Humidity: 89%

Dew Point: 75 °F

Location of TiruvarurLocation

Past Weather in Tiruvarur — Graph

°F

Tiruvarur Temperature Yesterday

Maximum temperature yesterday: 91 °F (at 3:30 PM)
Minimum temperature yesterday: 81 °F (at 6:00 AM)
Average temperature yesterday: 86 °F

High & Low Weather Summary for the Past Weeks

 TemperatureHumidityPressure
High100 °F (Jul 13, 2:00 PM)100% (Jul 17, 8:30 PM)29.86 "Hg (Jul 17, 8:30 PM)
Low73 °F (Jul 15, 10:00 PM)29% (Jul 14, 5:30 PM)29.56 "Hg (Jul 14, 4:30 PM)
Average87 °F58%29.72 "Hg
* Reported Jul 9 8:30 PM — Jul 24 9:00 PM, Tiruvarur, Weather by CustomWeather, © 2016

Note: Actual official high and low records may vary slightly from our data, if they occured in-between our weather recording intervals... More about our weather records

Advertising

Tiruvarur Weather History for the Previous 24 Hours

Scroll right to see more
 ConditionsComfort  
Time TempWeatherWind HumidityBarometerVisibility
9:00 PM
Sun, Jul 24
79 °FThunderstorms. Partly cloudy.6 mph89%29.74 "Hg2 mi
8:30 PM82 °FThunderstorms. Partly cloudy.8 mph74%29.71 "Hg2 mi
8:00 PM86 °FThunderstorms. Partly cloudy.8 mph62%29.68 "Hg2 mi
7:30 PM91 °FPartly cloudy.8 mph49%29.68 "Hg4 mi
7:00 PM93 °FBroken clouds.8 mph47%29.65 "Hg4 mi
6:30 PM93 °FBroken clouds.6 mph47%29.62 "Hg4 mi
6:00 PM95 °FBroken clouds.6 mph44%29.59 "Hg5 mi
5:30 PM95 °FScattered clouds.7 mph44%29.59 "Hg5 mi
5:00 PM95 °FScattered clouds.8 mph44%29.59 "Hg5 mi
4:30 PM95 °FScattered clouds.9 mph44%29.59 "Hg5 mi
4:00 PM97 °FScattered clouds.8 mph42%29.59 "Hg5 mi
3:30 PM97 °FScattered clouds.8 mph42%29.62 "Hg5 mi
3:00 PM95 °FScattered clouds.8 mph44%29.62 "Hg5 mi
2:30 PM95 °FScattered clouds.7 mph44%29.62 "Hg5 mi
2:00 PM95 °FScattered clouds.8 mph44%29.65 "Hg5 mi
1:30 PM95 °FScattered clouds.9 mph44%29.65 "Hg5 mi
1:00 PM95 °FScattered clouds.8 mph44%29.65 "Hg5 mi
12:30 PM93 °FScattered clouds.9 mph47%29.68 "Hg5 mi
12:00 PM93 °FScattered clouds.5 mph47%29.68 "Hg4 mi
11:30 AM91 °FScattered clouds.9 mph49%29.71 "Hg4 mi
11:00 AM90 °FScattered clouds.14 mph52%29.71 "Hg4 mi
10:30 AM88 °FScattered clouds.13 mph55%29.71 "Hg4 mi
10:00 AM88 °FScattered clouds.12 mph55%29.71 "Hg4 mi
9:30 AM86 °FScattered clouds.14 mph59%29.74 "Hg4 mi
9:00 AM86 °FScattered clouds.12 mph59%29.74 "Hg4 mi
8:30 AM84 °FScattered clouds.12 mph62%29.74 "Hg4 mi
8:00 AM84 °FScattered clouds.10 mph66%29.74 "Hg4 mi
7:30 AM82 °FScattered clouds.8 mph70%29.71 "Hg4 mi
7:00 AM81 °FScattered clouds.6 mph74%29.71 "Hg4 mi
6:30 AM81 °FPassing clouds.7 mph70%29.71 "Hg4 mi
6:00 AM81 °FPassing clouds.7 mph70%29.68 "Hg4 mi
5:30 AM81 °FPassing clouds.7 mph70%29.68 "Hg4 mi
5:00 AM81 °FPassing clouds.8 mph70%29.68 "Hg4 mi
4:30 AM81 °FPassing clouds.8 mph70%29.68 "Hg4 mi
4:00 AM81 °FPartly cloudy.8 mph70%29.68 "Hg4 mi
3:30 AM81 °FPartly cloudy.8 mph70%29.68 "Hg4 mi
3:00 AM81 °FPartly cloudy.9 mph70%29.71 "Hg4 mi
2:30 AM81 °FPartly cloudy.10 mph70%29.71 "Hg4 mi
2:00 AM82 °FPassing clouds.12 mph62%29.71 "Hg4 mi
1:30 AM82 °FPassing clouds.9 mph62%29.71 "Hg4 mi
1:00 AM82 °FPassing clouds.10 mph62%29.71 "Hg4 mi
12:30 AM82 °FPassing clouds.12 mph62%29.71 "Hg4 mi
12:00 AM82 °FPassing clouds.12 mph62%29.71 "Hg4 mi
11:30 PM
Sat, Jul 23
82 °FPassing clouds.12 mph62%29.71 "Hg4 mi
11:00 PM84 °FPartly cloudy.13 mph58%29.71 "Hg4 mi
10:30 PM84 °FPartly cloudy.12 mph62%29.71 "Hg4 mi
10:00 PM84 °FPartly cloudy.12 mph58%29.71 "Hg4 mi
Weather by CustomWeather, © 2016

See weather overviewHow to use our weather pages